Dewpoint
55 37 28 20 27 30 27 25 29 27 27 32 33 32 37 41 43 51 66 65 63 69 74 73 76 77 77 77 77 76 76 76 76 76 76 76 75 75 75 76 76 75 73 72 73 73 72 72 72
38 26 19 22 28 26 25 27 30 28 30 32 32 32 37 45 56 63 65 66 67 70 74 71 76 77 77 77 77 76 76 76 76 76 76 76 75 76 76 76 76 74 73 72 72 72 72 72 72
38 25 15 22 26 26 26 26 30 31 32 31 31 31 37 48 61 63 67 67 68 71 73 73 76 76 77 77 76 76 76 76 76 76 76 75 76 76 76 76 75 74 73 72 72 72 72 72 72
20 18 14 19 24 26 27 28 30 30 31 31 30 31 32 53 56 65 67 66 69 70 71 75 76 76 76 76 76 76 76 76 76 76 76 76 76 76 75 75 75 74 72 72 72 72 72 72 72
18 13 6 10 18 24 27 29 31 30 30 29 29 30 32 52 66 67 67 66 68 69 70 73 76 76 76 76 76 76 76 75 75 75 75 76 75 75 75 75 75 74 73 73 73 73 73 73 71
10 9 1 -1 7 13 21 26 29 31 31 31 27 30 32 63 64 68 66 65 66 67 70 71 75 76 75 76 75 75 75 75 75 75 75 75 75 75 75 74 74 74 74 74 73 73 73 73 72
11 6 -2 -6 -6 -1 11 18 20 25 27 28 26 26 33 52 64 68 66 65 65 66 68 69 68 73 76 75 75 75 74 74 74 74 75 75 75 75 75 74 74 74 74 74 74 73 73 72 71
17 7 4 -6 -7 -3 -1 3 10 15 19 23 25 25 29 60 65 67 66 65 64 65 65 66 67 66 68 70 75 75 74 74 74 74 74 74 74 74 74 74 74 74 74 74 74 73 72 71 70
21 13 6 1 -2 -2 -1 4 2 5 7 13 16 23 44 55 65 68 68 66 64 64 65 66 65 65 63 63 70 74 74 74 74 73 74 73 65 69 71 70 74 74 73 73 72 72 71 71 71
20 17 15 9 5 2 -1 4 5 7 8 6 14 18 45 55 62 63 67 65 64 65 64 65 68 65 63 61 68 67 67 68 68 67 69 64 65 66 65 69 74 74 73 72 72 72 72 70 59
24 21 20 17 11 9 5 3 3 2 7 11 11 15 33 47 59 60 63 65 65 65 66 66 70 70 65 64 66 64 65 66 67 68 68 67 66 66 65 65 68 70 71 66 67 66 62 58 56
22 22 22 20 17 15 11 9 8 8 8 6 12 17 19 42 49 59 60 64 65 66 67 68 70 71 70 65 66 65 65 66 66 68 70 68 67 67 66 63 63 66 63 64 64 61 62 62 61
23 20 20 20 18 16 15 13 12 11 12 9 9 15 17 21 40 61 63 63 67 67 69 70 71 72 71 70 68 67 67 67 67 68 70 68 67 68 66 66 64 64 63 63 65 62 62 62 62
18 20 19 18 19 19 17 16 15 15 16 17 17 17 15 19 28 60 65 65 68 69 69 71 72 74 73 73 72 70 70 69 68 67 68 70 68 69 67 68 66 65 64 63 62 63 63 62 61
21 19 19 18 17 17 18 17 16 18 18 18 17 17 16 20 25 58 66 67 69 69 71 72 73 74 74 74 74 72 70 69 68 67 70 71 71 71 71 67 67 65 68 68 67 66 66 65 65
23 21 18 17 19 18 17 12 13 17 18 17 17 15 14 18 24 58 66 69 70 69 71 72 71 73 73 75 74 71 70 70 68 68 69 71 71 71 71 67 67 66 67 66 65 66 65 67 67
23 18 18 16 18 17 18 14 15 15 19 20 21 18 13 18 27 55 65 68 70 72 71 72 72 72 73 74 73 73 73 71 69 69 70 73 72 72 71 68 67 71 67 67 68 68 69 68 66
20 19 18 20 18 18 15 16 15 16 17 20 19 18 15 17 24 33 59 62 67 71 73 73 72 72 73 73 73 72 71 70 71 72 71 72 73 72 72 71 70 71 67 67 69 71 70 68 67
22 21 20 19 21 20 19 17 15 16 17 17 20 20 19 20 25 29 36 53 62 69 72 74 74 74 72 71 71 70 70 70 70 69 71 72 71 72 73 70 70 70 68 69 69 67 67 66 66
26 23 22 22 18 19 20 19 20 19 19 19 21 21 21 22 26 28 36 48 62 67 71 73 73 72 71 71 71 69 69 68 68 68 71 71 71 71 71 71 69 71 70 69 68 68 66 65 66
27 25 22 21 21 21 20 19 20 20 20 21 20 21 22 22 25 31 34 42 55 62 68 71 73 71 71 72 71 69 69 69 68 70 70 71 71 71 71 71 70 70 69 67 69 67 67 63 64
26 26 23 20 18 16 20 12 20 20 21 22 22 21 20 22 25 28 32 40 51 57 63 69 71 70 70 71 69 71 67 65 65 67 67 69 69 70 70 70 70 69 67 68 68 67 68 67 62
27 26 26 24 19 18 17 14 16 20 20 21 23 22 22 23 24 25 28 33 43 51 59 68 70 69 68 69 70 69 68 66 67 66 69 70 69 69 68 69 69 69 68 68 68 68 68 63 63
29 28 26 26 19 16 19 15 14 16 20 21 22 21 22 21 23 24 28 34 43 51 61 68 67 67 67 68 69 69 69 67 65 66 65 66 67 67 68 67 68 68 67 67 66 67 67 67 65
30 29 27 24 18 15 19 16 17 21 19 19 21 22 22 24 24 27 29 36 47 60 65 65 65 66 67 69 68 68 68 68 68 67 67 65 65 65 67 67 67 66 67 67 67 66 65 64 62
30 32 22 19 18 15 18 17 17 22 33 41 40 37 35 32 30 31 36 46 58 62 63 63 65 66 66 65 65 66 67 65 64 66 65 67 66 66 66 66 66 64 63 63 64 60 59 61 59
30 30 24 19 20 15 16 22 32 31 38 42 43 43 38 36 36 43 50 58 60 62 63 63 63 63 63 63 63 63 63 64 62 63 62 60 61 60 61 61 62 61 60 60 60 56 59 59 59
31 28 25 19 18 16 15 19 19 34 38 44 48 52 54 56 57 58 59 60 61 62 62 62 63 62 61 60 59 59 60 60 60 60 60 60 59 58 58 57 58 57 57 57 59 55 56 57 55
28 27 24 25 21 18 16 21 35 36 42 46 49 52 53 54 55 56 56 58 59 59 59 59 57 57 57 56 56 56 55 55 55 54 54 55 56 55 54 54 54 54 55 56 57 57 55 54 55
23 27 27 19 23 18 17 35 44 44 46 49 50 51 52 52 53 54 55 56 55 54 54 54 55 54 54 54 53 52 52 51 50 51 51 51 52 52 50 50 49 49 49 52 52 51 51 51 51
Lifted_Index
10 11 11 9 6 4 4 3 3 3 3 4 4 3 1 -0 -2 -4 -4 -4 -3 -4 -4 -4 -4 -5 -5 -5 -5 -4 -3 -3 -3 -3 -3 -2 -2 -1 -2 -2 -2 -1 -1 -0 -0 -0 -0 -0 -1
11 11 11 8 6 4 4 3 3 3 3 3 4 3 2 -1 -3 -5 -5 -4 -4 -4 -4 -4 -4 -4 -5 -5 -5 -4 -4 -4 -3 -3 -3 -2 -2 -2 -2 -2 -2 -1 -1 -0 -0 -0 -0 -1 -1
13 12 10 8 6 5 4 4 3 3 3 4 4 3 2 -1 -3 -5 -5 -4 -4 -5 -4 -4 -4 -4 -5 -5 -5 -5 -5 -4 -4 -3 -3 -3 -3 -3 -2 -2 -2 -1 -1 -1 -1 -1 -1 -1 -1
13 13 10 8 7 6 5 4 4 4 4 4 4 4 2 -0 -3 -5 -5 -5 -5 -5 -5 -4 -4 -5 -5 -5 -4 -4 -4 -4 -4 -4 -3 -3 -3 -3 -3 -2 -2 -2 -1 -1 -1 -1 -1 -1 -1
13 12 10 8 7 7 6 5 5 4 4 4 4 4 2 -1 -4 -5 -5 -4 -5 -5 -5 -4 -5 -5 -5 -4 -4 -4 -4 -4 -4 -4 -4 -4 -4 -4 -3 -3 -2 -2 -2 -2 -2 -2 -2 -2 -1
11 10 9 8 8 8 7 7 6 5 4 4 4 4 2 -2 -4 -5 -4 -4 -4 -4 -4 -4 -4 -5 -5 -5 -4 -4 -4 -4 -4 -4 -4 -4 -4 -4 -4 -3 -3 -3 -3 -3 -3 -2 -2 -2 -2
10 9 8 7 8 8 8 8 7 6 5 5 5 4 2 -2 -5 -5 -5 -4 -4 -4 -4 -4 -4 -4 -4 -4 -4 -4 -4 -4 -4 -4 -4 -4 -4 -4 -4 -3 -3 -3 -3 -3 -3 -3 -2 -2 -2
10 9 8 7 7 8 8 9 8 8 7 6 6 5 3 -1 -4 -5 -5 -4 -4 -4 -4 -4 -3 -2 -2 -3 -4 -4 -4 -4 -4 -3 -3 -3 -3 -3 -3 -3 -3 -3 -3 -3 -3 -3 -3 -3 -2
9 8 7 7 7 7 8 9 9 9 8 7 6 5 2 -1 -4 -6 -6 -5 -5 -4 -4 -4 -3 -2 -1 -2 -3 -3 -3 -3 -3 -2 -2 -2 -1 -2 -2 -2 -3 -3 -3 -3 -3 -3 -3 -3 -2
8 7 7 7 7 7 8 9 9 9 9 8 7 6 3 -1 -3 -5 -6 -6 -5 -5 -5 -4 -4 -3 -2 -2 -2 -3 -3 -3 -2 -2 -1 -1 -0 -1 -1 -2 -3 -3 -3 -3 -3 -2 -2 -1 -1
8 7 7 8 8 8 8 9 9 9 9 8 8 7 4 1 -3 -5 -6 -6 -6 -6 -5 -5 -5 -4 -3 -3 -3 -3 -3 -3 -2 -2 -1 -1 -1 -1 -1 -2 -2 -3 -3 -2 -2 -2 -1 0 0
8 9 9 9 8 8 8 9 9 10 9 9 9 8 7 4 -0 -4 -6 -7 -7 -6 -6 -6 -6 -5 -4 -4 -4 -4 -4 -4 -4 -3 -3 -2 -2 -2 -2 -2 -2 -2 -2 -2 -2 -1 -1 -0 -0
10 10 10 10 9 9 9 9 10 10 10 10 10 10 9 7 2 -3 -6 -7 -7 -7 -7 -6 -6 -6 -6 -5 -5 -5 -5 -5 -5 -4 -4 -3 -3 -3 -2 -2 -2 -2 -2 -2 -2 -1 -1 -1 -1
11 11 11 11 10 10 9 9 9 10 11 10 10 10 10 8 4 -2 -6 -8 -8 -8 -8 -7 -7 -7 -7 -7 -7 -6 -6 -6 -5 -5 -5 -4 -4 -3 -3 -3 -3 -2 -2 -2 -2 -2 -2 -2 -2
11 11 11 11 11 10 9 8 9 10 11 10 10 9 9 9 5 -2 -7 -8 -9 -9 -8 -8 -8 -8 -8 -8 -8 -7 -7 -6 -6 -6 -5 -5 -4 -4 -4 -3 -3 -2 -2 -2 -2 -2 -2 -3 -3
10 9 9 10 11 10 9 7 8 10 10 9 9 9 9 9 5 -1 -7 -8 -9 -9 -9 -9 -8 -8 -8 -8 -8 -7 -7 -7 -7 -6 -6 -6 -5 -5 -4 -4 -3 -3 -3 -3 -2 -3 -3 -3 -3
8 7 7 9 10 10 8 7 8 10 9 9 8 8 8 8 6 0 -5 -8 -9 -9 -9 -9 -9 -8 -8 -8 -8 -7 -7 -7 -7 -7 -6 -6 -6 -5 -5 -5 -4 -4 -3 -3 -3 -3 -3 -3 -3
6 6 7 8 9 10 8 7 8 9 9 8 8 8 8 8 7 4 -1 -4 -7 -9 -10 -10 -9 -9 -8 -8 -8 -8 -7 -7 -7 -7 -6 -6 -6 -6 -6 -5 -5 -4 -4 -3 -4 -3 -3 -2 -2
6 7 8 8 9 9 8 7 7 8 9 9 9 9 9 8 8 6 4 -0 -4 -7 -9 -10 -10 -9 -9 -8 -8 -8 -7 -7 -6 -6 -6 -6 -6 -6 -6 -5 -5 -4 -4 -3 -3 -2 -2 -2 -2
7 7 7 8 9 9 8 7 7 8 8 9 9 9 9 9 8 7 6 3 -2 -5 -8 -9 -10 -9 -9 -8 -8 -7 -7 -6 -6 -6 -6 -6 -6 -6 -6 -5 -5 -4 -3 -3 -2 -2 -2 -2 -2
6 6 6 7 8 8 7 6 6 7 8 8 9 9 9 9 8 8 6 4 -0 -4 -6 -8 -9 -9 -8 -8 -7 -7 -6 -6 -6 -6 -5 -5 -5 -5 -5 -5 -4 -4 -3 -2 -2 -2 -3 -3 -3
5 5 5 5 6 6 5 5 5 6 7 8 8 9 9 9 8 8 7 5 1 -2 -5 -7 -8 -8 -7 -7 -6 -6 -6 -6 -6 -5 -5 -5 -4 -4 -4 -4 -4 -3 -3 -3 -3 -3 -3 -3 -3
4 4 3 4 4 4 4 4 4 5 6 7 8 9 9 8 8 8 7 5 2 -1 -4 -7 -7 -7 -6 -6 -6 -6 -6 -5 -5 -5 -5 -4 -4 -4 -4 -4 -4 -3 -3 -3 -4 -4 -4 -4 -4
2 2 2 2 2 2 4 4 5 6 6 7 7 8 8 8 8 7 7 5 2 -1 -4 -6 -6 -6 -6 -6 -6 -6 -6 -6 -5 -5 -5 -4 -4 -4 -4 -4 -4 -4 -4 -4 -5 -5 -5 -4 -4
0 0 0 0 0 2 3 4 5 6 6 6 6 7 7 7 7 7 6 4 1 -2 -4 -5 -5 -5 -5 -5 -5 -5 -6 -5 -5 -5 -5 -4 -4 -4 -4 -4 -4 -4 -4 -4 -4 -4 -4 -3 -3
0 0 -0 -0 0 1 3 4 5 5 5 4 4 5 5 6 6 5 4 1 -1 -3 -3 -3 -4 -4 -4 -5 -4 -4 -4 -4 -4 -4 -4 -3 -3 -3 -3 -3 -3 -3 -3 -3 -2 -2 -2 -1 -1
-0 -0 -1 -0 -0 0 1 2 3 4 3 2 2 2 3 4 4 3 1 -0 -2 -2 -2 -3 -3 -4 -4 -4 -3 -3 -3 -2 -2 -2 -2 -2 -2 -2 -2 -2 -2 -2 -2 -1 -0 0 0 0 1
-0 -0 -1 -1 -0 -0 0 1 2 2 2 1 1 1 1 1 1 1 -0 -1 -1 -2 -2 -3 -3 -3 -3 -3 -2 -2 -1 -1 -1 -1 -1 -1 -1 -2 -1 -1 -1 -0 0 1 1 2 2 2 2
-1 -1 -1 -1 -1 -0 -0 -0 -0 0 0 0 0 0 0 -0 -0 -0 -0 -1 -1 -2 -2 -3 -3 -3 -2 -2 -1 -1 -0 0 0 0 -0 -0 0 0 0 1 2 2 3 3 4 4 4 4 4
-1 -1 -1 -1 -1 -0 -0 -1 -2 -1 -0 0 1 0 0 -0 -0 -0 -1 -1 -2 -2 -2 -3 -2 -1 -1 -0 0 0 1 1 1 1 1 1 2 2 3 3 4 5 5 5 6 6 6 6 6